GW0659 Weather Reports


time (UTC)temp
C
wind
direction
speed
KPH
gust
KPH
rain 1hr
cm
rain 24hr
cm
rain mn
cm
humidity
%
barometer
mb
20260504081105 6 354 40.2 53.1 0.00 0.00 0.00 61 1014.1
20260504080603 7 350 41.8 53.1 0.00 0.00 0.00 60 1013.8
20260504050415 11 15 41.8 53.1 0.00 0.00 0.00 37 1011.0
20260504045912 11 359 32.2 49.9 0.00 0.00 0.00 36 1011.2
20260504045408 11 341 37.0 53.1 0.00 0.00 0.00 37 1011.1
20260504044904 11 1 41.8 48.3 0.00 0.00 0.00 38 1011.4
20260504044402 11 356 40.2 57.9 0.00 0.00 0.00 39 1010.9
20260504043859 11 345 29.0 49.9 0.00 0.00 0.00 40 1010.7
20260504043356 11 346 33.8 43.5 0.00 0.00 0.00 41 1010.6
20260504042853 12 0 40.2 56.3 0.00 0.00 0.00 41 1010.4
20260504042349 12 347 30.6 43.5 0.00 0.00 0.00 41 1010.5
20260504041846 12 351 38.6 46.7 0.00 0.00 0.00 40 1009.9
20260504041342 12 331 27.4 48.3 0.00 0.00 0.00 38 1010.1
20260504040838 13 358 25.7 38.6 0.00 0.00 0.00 38 1009.7
20260504040336 13 5 25.7 37.0 0.00 0.00 0.00 38 1009.7
20260504035831 13 3 25.7 30.6 0.00 0.00 0.00 37 1009.7
20260504035330 13 355 24.1 29.0 0.00 0.00 0.00 37 1009.5
20260504034826 13 349 24.1 27.4 0.00 0.00 0.00 37 1009.6
20260504034324 13 357 25.7 33.8 0.00 0.00 0.00 36 1009.6
20260504033821 13 357 22.5 27.4 0.00 0.00 0.00 36 1009.2
20260504033319 13 8 29.0 37.0 0.00 0.00 0.00 36 1009.1
20260504032815 13 349 29.0 33.8 0.00 0.00 0.00 36 1009.2
20260504032312 13 350 25.7 33.8 0.00 0.00 0.00 36 1008.9
20260504031809 13 353 37.0 46.7 0.00 0.00 0.00 36 1008.7
20260504031307 14 6 24.1 40.2 0.00 0.00 0.00 35 1008.8
20260504030803 14 344 25.7 35.4 0.00 0.00 0.00 35 1008.9
20260504030300 15 5 25.7 29.0 0.00 0.00 0.00 35 1008.8
20260504025756 15 359 32.2 33.8 0.00 0.00 0.00 35 1008.7
20260504025253 15 351 19.3 29.0 0.00 0.00 0.00 35 1008.8
20260504024749 15 345 27.4 30.6 0.00 0.00 0.00 35 1008.5
20260504024246 15 353 24.1 27.4 0.00 0.00 0.00 35 1008.8
20260504023743 15 352 20.9 27.4 0.00 0.00 0.00 34 1008.6
20260504023239 16 1 24.1 29.0 0.00 0.00 0.00 34 1008.5
20260504022735 16 4 25.7 30.6 0.00 0.00 0.00 33 1008.6
20260504022232 16 7 20.9 25.7 0.00 0.00 0.00 30 1008.8
20260504021729 18 342 11.3 14.5 0.00 0.00 0.00 23 1008.5
20260504021226 18 342 11.3 14.5 0.00 0.00 0.00 23 1008.5
20260504020723 18 342 11.3 14.5 0.00 0.00 0.00 23 1008.6
20260504020220 18 342 11.3 14.5 0.00 0.00 0.00 23 1008.3
20260504015716 18 342 11.3 14.5 0.00 0.00 0.00 23 1008.6
20260504015212 18 345 14.5 16.1 0.00 0.00 0.00 23 1008.5
20260504014708 19 332 9.7 16.1 0.00 0.00 0.00 22 1008.6
20260504014205 19 355 9.7 12.9 0.00 0.00 0.00 22 1008.7
20260504013703 19 352 12.9 17.7 0.00 0.00 0.00 21 1008.7
20260504013200 19 332 14.5 17.7 0.00 0.00 0.00 21 1008.8
20260504012656 20 332 11.3 16.1 0.00 0.00 0.00 20 1008.6
20260504012155 20 346 17.7 20.9 0.00 0.00 0.00 20 1008.7
20260504011651 20 0 14.5 17.7 0.00 0.00 0.00 20 1008.7
20260504011148 20 348 17.7 22.5 0.00 0.00 0.00 20 1008.7
20260504010644 20 330 14.5 22.5 0.00 0.00 0.00 20 1008.3
20260504010139 20 350 19.3 24.1 0.00 0.00 0.00 20 1008.6
20260504005637 20 304 12.9 22.5 0.00 0.00 0.00 20 1008.6
20260504005133 21 313 17.7 24.1 0.00 0.00 0.00 20 1008.8
20260504004632 21 346 20.9 22.5 0.00 0.00 0.00 19 1008.8
20260504004128 21 330 16.1 20.9 0.00 0.00 0.00 20 1008.9
20260504003625 21 302 14.5 16.1 0.00 0.00 0.00 20 1009.0
20260504003121 21 295 12.9 24.1 0.00 0.00 0.00 20 1008.8
20260504002618 21 300 11.3 20.9 0.00 0.00 0.00 20 1009.0
20260504002116 21 292 11.3 20.9 0.00 0.00 0.00 20 1008.9
20260504001614 21 315 16.1 20.9 0.00 0.00 0.00 20 1008.9
20260504001109 21 322 19.3 25.7 0.00 0.00 0.00 20 1009.1
20260504000607 21 320 14.5 14.5 0.00 0.00 0.00 20 1009.3
20260504000104 21 304 19.3 24.1 0.00 0.00 0.00 20 1009.1
20260503235602 21 301 20.9 30.6 0.00 0.00 0.00 20 1009.2
20260503235058 21 331 14.5 20.9 0.00 0.00 0.00 20 1009.1
20260503234556 21 278 14.5 20.9 0.00 0.00 0.00 19 1009.0
20260503234054 21 291 12.9 16.1 0.00 0.00 0.00 19 1009.2
20260503233550 21 332 19.3 27.4 0.00 0.00 0.00 20 1009.1
20260503233046 21 307 14.5 17.7 0.00 0.00 0.00 20 1009.1
20260503232544 21 315 19.3 24.1 0.00 0.00 0.00 19 1009.2
20260503232041 21 275 19.3 25.7 0.00 0.00 0.00 19 1009.3
20260503231539 21 273 17.7 25.7 0.00 0.00 0.00 20 1009.5
20260503231035 21 262 19.3 29.0 0.00 0.00 0.00 19 1009.5
20260503230532 21 313 9.7 24.1 0.00 0.00 0.00 19 1009.2
20260503230030 21 267 12.9 14.5 0.00 0.00 0.00 19 1009.6
20260503225526 21 260 17.7 22.5 0.00 0.00 0.00 19 1009.6
20260503225021 21 282 25.7 33.8 0.00 0.00 0.00 19 1009.3
20260503224519 21 292 14.5 25.7 0.00 0.00 0.00 19 1009.6
20260503224017 21 288 12.9 20.9 0.00 0.00 0.00 19 1009.8
20260503223515 21 310 17.7 27.4 0.00 0.00 0.00 20 1009.6
20260503223010 21 258 17.7 25.7 0.00 0.00 0.00 19 1009.6
20260503222508 21 293 11.3 20.9 0.00 0.00 0.00 19 1009.8
20260503222006 21 307 16.1 27.4 0.00 0.00 0.00 19 1009.8
20260503221504 21 268 9.7 12.9 0.00 0.00 0.00 19 1009.8
20260503221001 21 278 19.3 27.4 0.00 0.00 0.00 19 1010.0
20260503220457 21 280 19.3 29.0 0.00 0.00 0.00 19 1009.8
20260503215954 21 319 17.7 17.7 0.00 0.00 0.00 19 1009.9
20260503215451 21 275 17.7 29.0 0.00 0.00 0.00 19 1010.1
20260503214948 21 288 19.3 27.4 0.00 0.00 0.00 20 1010.0
20260503214446 21 279 9.7 16.1 0.00 0.00 0.00 20 1010.2
20260503213943 20 284 22.5 24.1 0.00 0.00 0.00 19 1010.2
20260503213442 21 298 22.5 29.0 0.00 0.00 0.00 19 1010.4
20260503212937 21 277 20.9 30.6 0.00 0.00 0.00 19 1010.5
20260503212435 21 277 12.9 14.5 0.00 0.00 0.00 19 1010.4
20260503211932 21 228 14.5 25.7 0.00 0.00 0.00 19 1010.6
20260503211429 21 299 19.3 37.0 0.00 0.00 0.00 20 1010.5
20260503210924 21 273 11.3 16.1 0.00 0.00 0.00 20 1010.7
20260503210422 20 320 8.0 27.4 0.00 0.00 0.00 21 1010.8
20260503205916 20 291 19.3 30.6 0.00 0.00 0.00 19 1010.8
20260503205414 20 277 20.9 27.4 0.00 0.00 0.00 20 1011.0
20260503204909 21 295 25.7 33.8 0.00 0.00 0.00 20 1010.9
20260503204407 20 286 11.3 20.9 0.00 0.00 0.00 20 1010.8
20260503203904 20 263 16.1 20.9 0.00 0.00 0.00 20 1011.0
20260503203401 21 305 22.5 30.6 0.00 0.00 0.00 20 1011.1
20260503202858 21 248 12.9 17.7 0.00 0.00 0.00 21 1011.1
20260503202356 20 283 14.5 17.7 0.00 0.00 0.00 21 1011.1
20260503201854 20 255 17.7 22.5 0.00 0.00 0.00 21 1011.4
20260503201351 20 259 11.3 22.5 0.00 0.00 0.00 21 1011.4
20260503200849 20 291 20.9 25.7 0.00 0.00 0.00 22 1011.2
20260503200344 20 281 19.3 25.7 0.00 0.00 0.00 22 1011.2
20260503195842 20 265 11.3 17.7 0.00 0.00 0.00 22 1011.4
20260503195338 20 259 20.9 25.7 0.00 0.00 0.00 22 1011.6
20260503194835 20 307 11.3 17.7 0.00 0.00 0.00 21 1011.7
20260503194331 20 325 9.7 14.5 0.00 0.00 0.00 22 1011.8
20260503193828 20 278 27.4 33.8 0.00 0.00 0.00 22 1012.0
20260503193324 20 291 6.4 22.5 0.00 0.00 0.00 22 1011.9
20260503192820 19 244 11.3 24.1 0.00 0.00 0.00 21 1011.8
20260503192315 19 261 8.0 20.9 0.00 0.00 0.00 23 1012.0
20260503191811 20 288 4.8 24.1 0.00 0.00 0.00 22 1012.1
20260503191309 19 266 17.7 24.1 0.00 0.00 0.00 22 1012.1
20260503190806 19 275 11.3 17.7 0.00 0.00 0.00 24 1012.0
20260503190303 19 279 9.7 16.1 0.00 0.00 0.00 23 1012.3
20260503185801 18 282 0.0 22.5 0.00 0.00 0.00 24 1012.6
20260503185256 18 328 17.7 27.4 0.00 0.00 0.00 24 1012.6
20260503184755 19 301 20.9 24.1 0.00 0.00 0.00 23 1012.6
20260503184252 18 272 17.7 25.7 0.00 0.00 0.00 23 1012.6
20260503183748 18 298 17.7 20.9 0.00 0.00 0.00 23 1012.6
20260503183245 18 293 16.1 20.9 0.00 0.00 0.00 23 1012.7
20260503182743 18 272 17.7 22.5 0.00 0.00 0.00 23 1012.8
20260503182242 18 328 9.7 24.1 0.00 0.00 0.00 23 1012.7
20260503181738 19 289 6.4 16.1 0.00 0.00 0.00 23 1012.7
20260503181235 18 262 11.3 17.7 0.00 0.00 0.00 23 1012.6
20260503180731 18 271 4.8 9.7 0.00 0.00 0.00 23 1012.9
20260503180230 19 297 8.0 14.5 0.00 0.00 0.00 22 1012.9
20260503175726 18 213 6.4 17.7 0.00 0.00 0.00 23 1012.8
20260503175224 18 343 6.4 20.9 0.00 0.00 0.00 23 1013.0
20260503174720 18 354 3.2 17.7 0.00 0.00 0.00 22 1013.0
20260503174218 18 351 16.1 24.1 0.00 0.00 0.00 24 1013.0
20260503173713 18 320 14.5 20.9 0.00 0.00 0.00 22 1013.4
20260503173209 18 337 17.7 24.1 0.00 0.00 0.00 22 1013.4
20260503172706 18 327 14.5 24.1 0.00 0.00 0.00 24 1013.3
20260503172203 18 332 14.5 24.1 0.00 0.00 0.00 24 1013.5
20260503171659 17 330 14.5 24.1 0.00 0.00 0.00 24 1013.4
20260503171157 17 324 12.9 22.5 0.00 0.00 0.00 24 1013.3
20260503170654 17 354 16.1 17.7 0.00 0.00 0.00 25 1013.3
20260503170151 17 334 19.3 24.1 0.00 0.00 0.00 26 1013.1
20260503160112 18 230 9.7 20.9 0.00 0.00 0.00 22 1013.4
20260503150542 16 270 0.0 6.4 0.00 0.00 0.00 33 1013.5
20260503130932 10 125 0.0 0.0 0.00 0.00 0.00 62 1014.4
20260503130430 8 248 0.0 0.0 0.00 0.00 0.00 63 1014.0
20260503110829 7 317 3.2 3.2 0.00 0.00 0.00 69 1014.7
20260503110325 7 319 1.6 3.2 0.00 0.00 0.00 67 1014.9
20260503100252 6 358 0.0 3.2 0.00 0.00 0.00 73 1015.3
20260503090211 5 34 0.0 0.0 0.00 0.00 0.00 75 1015.5